Cranham, United Kingdom
Current Conditions -  °F | °C
As of 2:20 PM on Thursday 30 Oct 2014 (Local Time) from EGLC Reporting Station
Scattered Clouds Scattered Clouds  
Wind Chill: 66°   Ceiling: Unl
Heat Index: 66°   Visibility: 6mi
Dew Point: 57°   Wind: 8mph
Humidity: 73%   Direction: 210°SSW
Pressure: 30.06"   Gusts: NA
Location:  51.57°N, 0.27°E
Report Text: EGLC 301420Z 21007KT 9999 SCT019 19/14 Q1018
Loading
Personal Weather Stations






























Interactive Weather Map
Tropical Storm Tracking
New forecast layout! Learn more

10-Day Weather Forecast

Advertisements
Track Severe Weather on mobile